www.pogodaiklimat.ru

Погода и климат >> Архив погоды >> Италия >> Венеция


АРХИВ ПОГОДЫ в Венеции

Время (UTC), дата Ветер
(напр.,м/с)
 
Видим.   Явления Облачность Т
(С)
Тd
(С)
f
(%)
Тe
(С)
Тes
(С)
Комфортность P
(гПа)
Po
(гПа)
Тmin
(С)
Tmax
(С)
R
(мм)
R24
(мм)
S
(см)
15 19.05 В 4 12 км слаб. морось 9/6 450 м
[Sc Ac cuf]
+16.2 +14.2 88 +16 +17 холодно 1004.7 1004.4
18 19.05 В 3 20 км 9/4 750 м
[Sc Ac trans Cc]
+14.9 +12.5 86 +14 +14 холодно 1004.6 1004.3 +16.9 5
21 19.05 В 2 20 км 9/6 660 м
[Sc Ac trans]
+14.5 +12.8 90 +14 +14 прохладно 1004.9 1004.7
00 20.05 В 2 10 км 6/6 600 м
[Sc]
+13.7 +13.0 96 +13 +13 прохладно 1004.6 1004.4 0.8
03 20.05 нст 1 10 км 8/5 300 м
[Cu Sc]
+13.5 +13.0 97 +14 +14 прохладно 1003.5 1003.3
06 20.05 штиль 0 8000 м дымка 9/5 450 м
[Cu Sc Ac und]
+14.2 +13.5 96 +14 +15 прохладно 1003.9 1003.6 +13.4 2
09 20.05 ЮЗ 6 9000 м дымка {дождь} 9/8 180 м
[Cu Sc Ac trans]
+14.7 +13.3 91 +13 +14 холодно 1004.9 1004.6
12 20.05 ЮЗ 7 20 км 9/6 600 м
[Sc Ac trans Cc]
+17.3 +12.9 75 +16 +18 холодно 1005.6 1005.3 0.4
15 20.05 ЮЗ 4 4000 м ливневой дождь 9/4 600 м
[Cu med, cong Ac cuf]
+15.4 +12.9 85 +14 +16 очень
холодно
1006.2 1005.9
18 20.05 Ю 3 10 км слаб. ливневой дождь 10/4 900 м
[Cu Sc Ac cuf]
+15.1 +13.2 88 +15 +15 холодно 1006.7 1006.4 +19.6 1
21 20.05 Ю 3 25 км 9/9 2000 м
[Sc]
+15.2 +12.8 86 +14 +14 холодно 1007.0 1006.7
00 21.05 ЮЗ 5 20 км слаб. морось 9/8 750 м
[Sc]
+14.3 +12.9 91 +13 +13 прохладно 1007.2 1006.9 0.4
03 21.05 Ю 4 20 км 9/8 900 м
[Sc]
+14.0 +12.3 89 +13 +13 прохладно 1006.7 1006.5
06 21.05 ЮЗ 5 25 км 10/10 1200 м
[Sc]
+14.3 +11.7 84 +13 +13 прохладно 1007.3 1007.0 +13.9 0.6
09 21.05 ЮЗ 3 25 км 5/5 500 м
[Sc]
+16.4 +12.2 76 +16 +23 прохладно 1008.6 1008.3
12 21.05 В 2 25 км 8/8 840 м
[Sc]
+17.5 +12.7 73 +18 +22 прохладно 1009.9 1009.7
15 21.05 Ю 1 10 км 9/6 1200 м
[Cu Sc As trans]
+18.0 +13.7 76 +19 +21 прохладно 1010.6 1010.4
18 21.05 ЮВ 1 20 км 6/0 2000 м
[Ac cuf Cs]
+16.8 +14.0 84 +18 +18 прохладно 1011.2 1010.9 +18.2
21 21.05 СВ 4 20 км 9/9 1500 м
[Sc]
+15.5 +13.9 90 +15 +15 прохладно 1012.5 1012.2
00 22.05 СВ 3 20 км 9/9 1140 м
[Sc]
+14.9 +13.8 93 +14 +14 прохладно 1012.5 1012.2
03 22.05 С 2 20 км дымка 6/6 1140 м
[St]
+14.7 +13.1 90 +15 +15 по сезону 1012.6 1012.4
06 22.05 С 2 10 км 10/8 1050 м
[Sc As op]
+14.8 +13.2 90 +15 +15 по сезону 1013.9 1013.6 +14.5
09 22.05 В 2 20 км 6/3 900 м
[Cu hum Ac cuf]
+18.4 +12.5 68 +20 +27 по сезону 1014.4 1014.2
12 22.05 Ю 3 20 км 4/1 1050 м
[Cu hum Ac und]
+19.3 +13.8 70 +21 +32 комфорт 1014.6 1014.3
15 22.05 ЮВ 4 10 км ясно +19.3 +13.4 69 +21 +27 комфорт 1013.9 1013.7
18 22.05 Ю 2 10 км ясно +17.8 +14.4 80 +19 +19 по сезону 1014.3 1014.1 +20.0
21 22.05 Ю 1 15 км 3/0
[Ac trans]
+17.3 +15.2 87 +18 +18 по сезону 1015.9 1015.6
00 23.05 нст 1 9000 м дымка 9/9 1050 м
[Sc]
+16.5 +15.3 93 +18 +18 тепло 1016.2 1015.9
03 23.05 В 2 10 км 8/1 300 м
[Sc Ac cast]
+16.3 +15.2 93 +17 +17 по сезону 1015.8 1015.6
06 23.05 СВ 1 2000 м дымка 3/3 90 м
[St Ac und]
+16.0 +15.1 94 +17 +20 по сезону 1016.4 1016.1 +15.3
09 23.05 ЮВ 2 10 км ясно +19.1 +14.4 74 +21 +35 комфорт 1016.5 1016.3
12 23.05 ЮВ 3 10 км ясно +19.9 +14.9 73 +22 +37 комфорт 1015.7 1015.4
15 23.05 Ю 3 20 км 3/3 900 м
[Cu med, cong Ac cuf]
+21.9 +14.8 64 +25 +31 комфорт 1014.1 1013.8
18 23.05 Ю 3 20 км 5/0
[Ac und]
+20.0 +16.0 78 +23 +23 комфорт 1013.7 1013.4 +22.1
21 23.05 Ю 3 10 км зарница 1/1 600 м
[Cb calv]
+18.9 +15.5 81 +20 +20 тепло 1014.5 1014.2
00 24.05 СВ 3 н/о н/о +18.0 +15.4 85 +18 +18 тепло 1014.6 1014.4
03 24.05 С 2 н/о н/о +16.7 +14.9 89 +17 +17 по сезону 1014.1 1013.9
06 24.05 В 2 15 км {дождь} 4/3 900 м
[Sc Cs]
+18.3 +14.4 78 +19 +22 тепло 1014.5 1014.3 +16.5 0.2
09 24.05 ЮВ 2 15 км 3/3 750 м
[Cu Sc]
+20.1 +15.1 73 +23 +33 комфорт 1014.3 1014.1
12 24.05 Ю 3 20 км 1/1 900 м
[Cu med, cong]
+22.3 +15.3 65 +26 +39 жарко 1013.3 1013.1
15 24.05 Ю 3 20 км ясно +22.4 +14.8 62 +26 +34 жарко 1012.2 1011.9
18 24.05 Ю 2 20 км ясно +20.4 +15.3 73 +24 +24 комфорт 1011.7 1011.4 +22.6
21 24.05 ЮЗ 4 20 км ясно +19.6 +15.6 78 +22 +22 комфорт 1012.6 1012.3
00 25.05 СВ 3 20 км 3/3 1200 м
[Cu hum]
+18.7 +17.0 90 +20 +20 тепло 1013.2 1013.0
03 25.05 В 2 10 км 4/4 1200 м
[Sc As trans]
+18.2 +16.9 92 +19 +19 тепло 1012.8 1012.5
06 25.05 В 3 500 м туман 5/5 90 м
[Sc]
+18.8 +17.7 93 +20 +22 тепло 1013.8 1013.5 +16.7
09 25.05 10 км 3/3 600 м
[Sc]
+21.5 +16.3 72 1014.9 1014.6
12 25.05 ЮВ 4 10 км осадки на расстоянии {туман} 3/3 600 м
[Cb cap]
+22.4 +13.5 57 +25 +35 комфорт 1014.7 1014.4
15 25.05 Ю 3 40 км 9/0
[Ci sp]
+21.7 +14.2 62 +25 +29 комфорт 1013.7 1013.5
18 25.05 Ю 2 40 км 9/1 1500 м
[Sc Ci sp]
+20.4 +14.0 67 +23 +24 комфорт 1014.0 1013.8 +22.9
21 25.05 С 2 55 км 8/0
[Ac trans Ci sp]
+19.4 +15.6 79 +22 +22 комфорт 1014.8 1014.6
00 26.05 ЮВ 3 20 км ясно +19.1 +16.0 82 +21 +21 комфорт 1014.4 1014.2
03 26.05 С 4 4000 м дымка 5/5 300 м
[Sc]
+16.4 +15.1 92 +16 +16 по сезону 1014.4 1014.1
06 26.05 СВ 4 9000 м дымка 6/1 900 м
[Sc diur, vesp Ac trans Cs]
+17.0 +14.7 86 +17 +18 по сезону 1015.0 1014.7 +15.9
09 26.05 В 4 40 км 8/1 450 м
[Cu Sc Cs]
+20.8 +14.3 66 +24 +32 комфорт 1015.2 1015.0

 

Местоположение метеостанции Венеция (Италия): широта 45.50 долгота 12.33 высота над уровнем моря 6 м.

В архиве по умолчанию представлена погода в Венеции за последнюю неделю. Архивные данные за месяц целиком и за предыдущие месяцы, начиная с января 2011 года, Вы можете получить, выбрав интересующий диапазон дат из раскрывающегося списка и нажав кнопку "Ввод!".


*Определитесь, кто Вы:
робот инопланетянин человек

Внимание! Время в таблицах - всемирное. Для получения местного времени необходимо прибавить поправку, которая равна 1 ч.

Смотрите также архив погоды в соседних городах и на ближайших метеорологических станциях:

Погода в Венеция аэропорту (Италия) (9 км)
Погода в Тревизо (Италия) (20 км)
Погода в Тревизо аэропорту (Италия) (27 км)
Погода в Конкордия-Саджиттарии (Италия) (49 км)
Погода в Авиано (Италия) (63 км)
Погода на Базе ВВС Авиано (Италия) (63 км)
Погода на Базе ВВС Риволто (Италия) (76 км)
Погода в Ферраре (Италия) (93 км)
Погода в Ронки-деи-Леджонари (Италия) (96 км)
Погода в Портороже (Словения) (97 км)

Пояснения к столбцам:

Ветер - указаны скорость ветра в м/с - средняя за 10 мин, порывы в срок и между сроками (в фигурных скобках) и направление, откуда дует ветер: С - северный, СВ - северо-восточный, В - восточный, ЮВ - юго-восточный, Ю - южный, ЮЗ - юго-западный, З - западный, СЗ - северо-западный.
Видимость - горизонтальная дальность видимости в метрах или километрах. При видимости от 1 до 10 км при отсутствии осадков обычно наблюдается дымка, при ухудшении видимости до 1 км и менее - туман. В сухую погоду видимость может ухудшаться дымом, пылью или мглою.
Явления - указаны атмосферные явления, наблюдавшиеся в срок или в последний час перед сроком; фигурными скобками обозначены явления, наблюдавшиеся между сроками (за 1-3 часа до срока); квадратными скобками обозначены град или гололедные отложения с указанием их диаметра в мм.
Облачность - указаны через наклонную черту общая и нижняя облачность в баллах и высота нижней границы облаков в метрах; квадратными скобками обозначены формы облаков: Ci - перистые, Cs - перисто-слоистые, Cc - перисто-кучевые, Ac - высококучевые, As - высокослоистые, Sc - слоисто-кучевые, Ns - слоисто-дождевые, Cu - кучевые, Cb - кучево-дождевые. Подробнее классификацию облаков см. в Атласе облаков (PDF).
T - Температура воздуха - температура, измеренная на высоте 2 м над землей.
Td - Температура точки росы - температура, при понижении до которой содержащийся в воздухе водяной пар достигнет насыщения.
f - Относительная влажность воздуха - влажноcть воздуха, измеренная на высоте 2 м над землей.
Te - Эффективная температура - температура, которую ощущает одетый по сезону человек в тени. Характеристика душности погоды. При расчете учитывается влияние влажности воздуха и скорости ветра на теплоощущения человека.
Tes - Эффективная температура на солнце - температура, которую ощущает человек, с поправкой на солнечный нагрев. Характеристика знойности погоды. Зависит от высоты солнца над горизонтом, облачности и скорости ветра. Ночью, в пасмурную погоду, а также при ветре 12 м/с и более поправка равна нулю.
P - Атмосферное давление - приведенное к уровню моря атмосферное давление.
Po - Атмосферное давление - измеренное на уровне метеостанции атмосферное давление.
Tmin - Минимальная температура - минимум температуры воздуха на высоте 2 м над землей.
Tmax - Максимальная температура - максимум температуры воздуха на высоте 2 м над землей.
R - Количество осадков - Количество выпавших осадков за период времени, мм. При наведении курсора мыши на число - период времени, за который выпало указанное количество осадков.
R24 - Количество осадков - Количество выпавших осадков за 24 часа, мм.
S - Снежный покров - Высота снежного покрова, см. При наведении курсора мыши на число - состояние снежного покрова и степень покрытия местности в баллах.